TimeCDT,TemperatureF,Dew PointF,Humidity,Sea Level PressureIn,VisibilityMPH,Wind Direction,Wind SpeedMPH,Gust SpeedMPH,PrecipitationIn,Events,Conditions,WindDirDegrees,DateUTC
12:15 AM,50.0,44.6,82,30.09,10.0,WSW,3.5,-,N/A,,Clear,250,2012-10-15 05:15:00
12:35 AM,51.8,46.4,82,30.09,10.0,Calm,Calm,-,N/A,,Clear,0,2012-10-15 05:35:00
1:15 AM,51.8,46.4,82,30.09,10.0,South,3.5,-,N/A,,Clear,170,2012-10-15 06:15:00
2:15 AM,46.4,44.6,93,30.08,10.0,Calm,Calm,-,N/A,,Clear,0,2012-10-15 07:15:00
2:35 AM,50.0,44.6,82,30.08,10.0,SSE,3.5,-,N/A,,Clear,160,2012-10-15 07:35:00
3:15 AM,46.4,44.6,93,30.07,10.0,Calm,Calm,-,N/A,,Clear,0,2012-10-15 08:15:00
3:35 AM,48.2,44.6,87,30.07,10.0,Calm,Calm,-,N/A,,Clear,0,2012-10-15 08:35:00
3:55 AM,46.4,44.6,93,30.07,10.0,Calm,Calm,-,N/A,,Clear,0,2012-10-15 08:55:00
4:15 AM,46.4,44.6,93,30.06,10.0,Calm,Calm,-,N/A,,Clear,0,2012-10-15 09:15:00
4:35 AM,46.4,44.6,93,30.06,10.0,Calm,Calm,-,N/A,,Clear,0,2012-10-15 09:35:00
4:55 AM,46.4,44.6,93,30.06,10.0,Calm,Calm,-,N/A,,Clear,0,2012-10-15 09:55:00
5:15 AM,44.6,42.8,93,30.06,10.0,Calm,Calm,-,N/A,,Clear,0,2012-10-15 10:15:00
5:55 AM,46.4,44.6,93,30.06,10.0,Calm,Calm,-,N/A,,Clear,0,2012-10-15 10:55:00
6:15 AM,46.4,44.6,93,30.06,10.0,SSE,4.6,-,N/A,,Clear,160,2012-10-15 11:15:00
6:35 AM,48.2,44.6,87,30.07,10.0,SSE,3.5,-,N/A,,Clear,150,2012-10-15 11:35:00
6:55 AM,46.4,44.6,93,30.07,10.0,SSE,3.5,-,N/A,,Clear,150,2012-10-15 11:55:00
7:15 AM,46.4,44.6,93,30.07,10.0,Calm,Calm,-,N/A,,Clear,0,2012-10-15 12:15:00
7:35 AM,46.4,44.6,93,30.07,10.0,SSE,3.5,-,N/A,,Clear,150,2012-10-15 12:35:00
7:55 AM,46.4,44.6,93,30.07,10.0,SE,3.5,-,N/A,,Clear,140,2012-10-15 12:55:00
8:15 AM,48.2,46.4,93,30.07,10.0,Calm,Calm,-,N/A,,Clear,0,2012-10-15 13:15:00
8:35 AM,51.8,48.2,88,30.08,10.0,Calm,Calm,-,N/A,,Clear,0,2012-10-15 13:35:00
8:55 AM,51.8,48.2,88,30.08,10.0,Calm,Calm,-,N/A,,Clear,0,2012-10-15 13:55:00
9:15 AM,55.4,50.0,82,30.09,10.0,Calm,Calm,-,N/A,,Clear,0,2012-10-15 14:15:00
9:55 AM,60.8,50.0,68,30.09,10.0,Calm,Calm,-,N/A,,Clear,0,2012-10-15 14:55:00
10:15 AM,62.6,50.0,63,30.09,10.0,SW,3.5,-,N/A,,Clear,220,2012-10-15 15:15:00
10:35 AM,62.6,50.0,63,30.09,10.0,WSW,3.5,-,N/A,,Clear,250,2012-10-15 15:35:00
10:55 AM,64.4,50.0,59,30.08,10.0,WSW,4.6,-,N/A,,Clear,240,2012-10-15 15:55:00
11:15 AM,68.0,50.0,52,30.08,10.0,WSW,4.6,-,N/A,,Clear,250,2012-10-15 16:15:00
11:35 AM,69.8,50.0,49,30.07,10.0,West,4.6,-,N/A,,Clear,260,2012-10-15 16:35:00
11:55 AM,71.6,51.8,50,30.07,10.0,SW,6.9,-,N/A,,Clear,230,2012-10-15 16:55:00
12:15 PM,73.4,50.0,44,30.07,10.0,WSW,6.9,-,N/A,,Clear,250,2012-10-15 17:15:00
12:35 PM,75.2,50.0,41,30.06,10.0,WSW,6.9,-,N/A,,Clear,240,2012-10-15 17:35:00
1:15 PM,78.8,46.4,32,30.04,10.0,WSW,10.4,-,N/A,,Clear,240,2012-10-15 18:15:00
1:35 PM,80.6,46.4,30,30.03,10.0,WSW,9.2,-,N/A,,Clear,250,2012-10-15 18:35:00
1:55 PM,78.8,46.4,32,30.01,10.0,SSW,8.1,-,N/A,,Clear,210,2012-10-15 18:55:00
2:15 PM,80.6,46.4,30,30.00,10.0,WSW,9.2,-,N/A,,Clear,250,2012-10-15 19:15:00
2:35 PM,80.6,44.6,28,29.98,10.0,SW,10.4,-,N/A,,Clear,230,2012-10-15 19:35:00
2:55 PM,82.4,44.6,26,29.98,10.0,SW,10.4,-,N/A,,Clear,220,2012-10-15 19:55:00
3:15 PM,82.4,44.6,26,29.97,10.0,SW,5.8,10.4,N/A,,Clear,220,2012-10-15 20:15:00
3:35 PM,82.4,44.6,26,29.96,10.0,SW,6.9,-,N/A,,Clear,220,2012-10-15 20:35:00
3:55 PM,82.4,44.6,26,29.95,10.0,SW,9.2,-,N/A,,Clear,230,2012-10-15 20:55:00
4:15 PM,82.4,44.6,26,29.95,10.0,SW,6.9,-,N/A,,Clear,230,2012-10-15 21:15:00
4:35 PM,82.4,44.6,26,29.93,10.0,West,5.8,-,N/A,,Clear,270,2012-10-15 21:35:00
4:55 PM,82.4,46.4,28,29.93,10.0,SSW,5.8,-,N/A,,Clear,210,2012-10-15 21:55:00
5:15 PM,80.6,46.4,30,29.93,10.0,SW,5.8,-,N/A,,Clear,220,2012-10-15 22:15:00
5:35 PM,80.6,48.2,32,29.93,10.0,SSW,5.8,-,N/A,,Clear,200,2012-10-15 22:35:00
5:55 PM,78.8,48.2,34,29.92,10.0,South,10.4,-,N/A,,Clear,170,2012-10-15 22:55:00
6:15 PM,77.0,48.2,36,29.92,10.0,South,8.1,-,N/A,,Clear,170,2012-10-15 23:15:00
6:35 PM,73.4,50.0,44,29.92,10.0,South,8.1,-,N/A,,Clear,170,2012-10-15 23:35:00
7:15 PM,69.8,51.8,53,29.92,10.0,SSE,6.9,-,N/A,,Clear,160,2012-10-16 00:15:00
7:35 PM,68.0,51.8,56,29.92,10.0,South,8.1,-,N/A,,Clear,170,2012-10-16 00:35:00
7:55 PM,66.2,51.8,60,29.93,10.0,SSE,6.9,-,N/A,,Clear,160,2012-10-16 00:55:00
8:15 PM,66.2,51.8,60,29.93,10.0,SSE,8.1,-,N/A,,Clear,160,2012-10-16 01:15:00
8:35 PM,66.2,51.8,60,29.93,10.0,SSE,8.1,-,N/A,,Clear,160,2012-10-16 01:35:00
8:55 PM,64.4,51.8,64,29.93,10.0,SSE,8.1,-,N/A,,Clear,160,2012-10-16 01:55:00
9:15 PM,64.4,51.8,64,29.93,10.0,South,5.8,-,N/A,,Clear,170,2012-10-16 02:15:00
9:35 PM,64.4,50.0,59,29.93,10.0,South,9.2,-,N/A,,Clear,190,2012-10-16 02:35:00
10:15 PM,68.0,50.0,52,29.94,10.0,SSW,11.5,-,N/A,,Clear,200,2012-10-16 03:15:00
10:35 PM,68.0,50.0,52,29.94,10.0,SSW,12.7,-,N/A,,Clear,200,2012-10-16 03:35:00
10:55 PM,68.0,50.0,52,29.94,10.0,SSW,12.7,-,N/A,,Clear,200,2012-10-16 03:55:00
11:15 PM,66.2,50.0,56,29.94,10.0,SSW,12.7,-,N/A,,Clear,200,2012-10-16 04:15:00
11:35 PM,64.4,50.0,59,29.94,10.0,South,10.4,-,N/A,,Clear,190,2012-10-16 04:35:00
11:55 PM,64.4,50.0,59,29.93,10.0,South,11.5,-,N/A,,Clear,190,2012-10-16 04:55:00